﻿測定場所 (Monitoring sites),日付 (Measurement date),時間 (Measurement time),線量率 最大値 (max) μGy/h,線量率 最小値 (min) μGy/h,線量率 平均値 (average) μGy/h,
江戸川 (Edogawa),2016-01-17,23:01～24:00,0.0746,0.0635,0.0693,
江戸川 (Edogawa),2016-01-17,22:01～23:00,0.0712,0.0581,0.0641,
江戸川 (Edogawa),2016-01-17,21:01～22:00,0.0642,0.0571,0.0616,
江戸川 (Edogawa),2016-01-17,20:01～21:00,0.0657,0.0593,0.0624,
江戸川 (Edogawa),2016-01-17,19:01～20:00,0.0630,0.0558,0.0592,
江戸川 (Edogawa),2016-01-17,18:01～19:00,0.0643,0.0563,0.0597,
江戸川 (Edogawa),2016-01-17,17:01～18:00,0.0641,0.0561,0.0600,
江戸川 (Edogawa),2016-01-17,16:01～17:00,0.0646,0.0577,0.0601,
江戸川 (Edogawa),2016-01-17,15:01～16:00,0.0639,0.0559,0.0602,
江戸川 (Edogawa),2016-01-17,14:01～15:00,0.0647,0.0565,0.0600,
江戸川 (Edogawa),2016-01-17,13:01～14:00,0.0624,0.0567,0.0602,
江戸川 (Edogawa),2016-01-17,12:01～13:00,0.0646,0.0566,0.0605,
江戸川 (Edogawa),2016-01-17,11:01～12:00,0.0645,0.0550,0.0601,
江戸川 (Edogawa),2016-01-17,10:01～11:00,0.0634,0.0570,0.0601,
江戸川 (Edogawa),2016-01-17,09:01～10:00,0.0622,0.0567,0.0597,
江戸川 (Edogawa),2016-01-17,08:01～09:00,0.0639,0.0574,0.0605,
江戸川 (Edogawa),2016-01-17,07:01～08:00,0.0638,0.0571,0.0599,
江戸川 (Edogawa),2016-01-17,06:01～07:00,0.0625,0.0564,0.0599,
江戸川 (Edogawa),2016-01-17,05:01～06:00,0.0631,0.0551,0.0597,
江戸川 (Edogawa),2016-01-17,04:01～05:00,0.0635,0.0554,0.0596,
江戸川 (Edogawa),2016-01-17,03:01～04:00,0.0626,0.0559,0.0597,
江戸川 (Edogawa),2016-01-17,02:01～03:00,0.0631,0.0567,0.0599,
江戸川 (Edogawa),2016-01-17,01:01～02:00,0.0643,0.0554,0.0600,
江戸川 (Edogawa),2016-01-17,00:01～01:00,0.0634,0.0556,0.0599,
江戸川 (Edogawa),2016-01-16,23:01～24:00,0.0619,0.0559,0.0596,
江戸川 (Edogawa),2016-01-16,22:01～23:00,0.0621,0.0569,0.0598,
江戸川 (Edogawa),2016-01-16,21:01～22:00,0.0659,0.0561,0.0597,
江戸川 (Edogawa),2016-01-16,20:01～21:00,0.0624,0.0555,0.0596,
江戸川 (Edogawa),2016-01-16,19:01～20:00,0.0635,0.0561,0.0600,
江戸川 (Edogawa),2016-01-16,18:01～19:00,0.0635,0.0576,0.0602,
江戸川 (Edogawa),2016-01-16,17:01～18:00,0.0640,0.0570,0.0603,
江戸川 (Edogawa),2016-01-16,16:01～17:00,0.0639,0.0566,0.0600,
江戸川 (Edogawa),2016-01-16,15:01～16:00,0.0644,0.0566,0.0601,
江戸川 (Edogawa),2016-01-16,14:01～15:00,0.0642,0.0574,0.0604,
江戸川 (Edogawa),2016-01-16,13:01～14:00,0.0643,0.0576,0.0602,
江戸川 (Edogawa),2016-01-16,12:01～13:00,0.0639,0.0564,0.0608,
江戸川 (Edogawa),2016-01-16,11:01～12:00,0.0644,0.0572,0.0605,
江戸川 (Edogawa),2016-01-16,10:01～11:00,0.0637,0.0557,0.0604,
江戸川 (Edogawa),2016-01-16,09:01～10:00,0.0634,0.0569,0.0600,
江戸川 (Edogawa),2016-01-16,08:01～09:00,0.0633,0.0544,0.0600,
江戸川 (Edogawa),2016-01-16,07:01～08:00,0.0627,0.0563,0.0598,
江戸川 (Edogawa),2016-01-16,06:01～07:00,0.0636,0.0555,0.0600,
江戸川 (Edogawa),2016-01-16,05:01～06:00,0.0628,0.0574,0.0599,
江戸川 (Edogawa),2016-01-16,04:01～05:00,0.0619,0.0562,0.0595,
江戸川 (Edogawa),2016-01-16,03:01～04:00,0.0624,0.0575,0.0596,
江戸川 (Edogawa),2016-01-16,02:01～03:00,0.0640,0.0576,0.0598,
江戸川 (Edogawa),2016-01-16,01:01～02:00,0.0642,0.0571,0.0601,
江戸川 (Edogawa),2016-01-16,00:01～01:00,0.0621,0.0569,0.0600,
江戸川 (Edogawa),2016-01-15,23:01～24:00,0.0643,0.0566,0.0596,
江戸川 (Edogawa),2016-01-15,22:01～23:00,0.0627,0.0567,0.0596,
江戸川 (Edogawa),2016-01-15,21:01～22:00,0.0625,0.0562,0.0599,
江戸川 (Edogawa),2016-01-15,20:01～21:00,0.0624,0.0564,0.0598,
江戸川 (Edogawa),2016-01-15,19:01～20:00,0.0630,0.0572,0.0598,
江戸川 (Edogawa),2016-01-15,18:01～19:00,0.0634,0.0553,0.0593,
江戸川 (Edogawa),2016-01-15,17:01～18:00,0.0635,0.0555,0.0599,
江戸川 (Edogawa),2016-01-15,16:01～17:00,0.0633,0.0571,0.0598,
江戸川 (Edogawa),2016-01-15,15:01～16:00,0.0641,0.0567,0.0599,
江戸川 (Edogawa),2016-01-15,14:01～15:00,0.0631,0.0569,0.0602,
江戸川 (Edogawa),2016-01-15,13:01～14:00,0.0646,0.0577,0.0606,
江戸川 (Edogawa),2016-01-15,12:01～13:00,0.0641,0.0568,0.0603,
江戸川 (Edogawa),2016-01-15,11:01～12:00,0.0635,0.0572,0.0601,
江戸川 (Edogawa),2016-01-15,10:01～11:00,0.0651,0.0558,0.0600,
江戸川 (Edogawa),2016-01-15,09:01～10:00,0.0628,0.0575,0.0599,
江戸川 (Edogawa),2016-01-15,08:01～09:00,0.0626,0.0565,0.0596,
江戸川 (Edogawa),2016-01-15,07:01～08:00,0.0632,0.0551,0.0597,
江戸川 (Edogawa),2016-01-15,06:01～07:00,0.0621,0.0569,0.0595,
江戸川 (Edogawa),2016-01-15,05:01～06:00,0.0624,0.0554,0.0597,
江戸川 (Edogawa),2016-01-15,04:01～05:00,0.0624,0.0557,0.0596,
江戸川 (Edogawa),2016-01-15,03:01～04:00,0.0644,0.0564,0.0597,
江戸川 (Edogawa),2016-01-15,02:01～03:00,0.0644,0.0573,0.0599,
江戸川 (Edogawa),2016-01-15,01:01～02:00,0.0630,0.0568,0.0599,
江戸川 (Edogawa),2016-01-15,00:01～01:00,0.0619,0.0564,0.0594,
江戸川 (Edogawa),2016-01-14,23:01～24:00,0.0628,0.0548,0.0593,
江戸川 (Edogawa),2016-01-14,22:01～23:00,0.0639,0.0571,0.0599,
江戸川 (Edogawa),2016-01-14,21:01～22:00,0.0639,0.0569,0.0598,
江戸川 (Edogawa),2016-01-14,20:01～21:00,0.0633,0.0567,0.0597,
江戸川 (Edogawa),2016-01-14,19:01～20:00,0.0622,0.0568,0.0597,
江戸川 (Edogawa),2016-01-14,18:01～19:00,0.0635,0.0559,0.0591,
江戸川 (Edogawa),2016-01-14,17:01～18:00,0.0627,0.0562,0.0595,
江戸川 (Edogawa),2016-01-14,16:01～17:00,0.0631,0.0559,0.0598,
江戸川 (Edogawa),2016-01-14,15:01～16:00,0.0636,0.0566,0.0606,
江戸川 (Edogawa),2016-01-14,14:01～15:00,0.0641,0.0568,0.0604,
江戸川 (Edogawa),2016-01-14,13:01～14:00,0.0648,0.0561,0.0601,
江戸川 (Edogawa),2016-01-14,12:01～13:00,0.0639,0.0576,0.0605,
江戸川 (Edogawa),2016-01-14,11:01～12:00,0.0647,0.0568,0.0601,
江戸川 (Edogawa),2016-01-14,10:01～11:00,0.0647,0.0565,0.0599,
江戸川 (Edogawa),2016-01-14,09:01～10:00,0.0638,0.0576,0.0601,
江戸川 (Edogawa),2016-01-14,08:01～09:00,0.0635,0.0564,0.0602,
江戸川 (Edogawa),2016-01-14,07:01～08:00,0.0629,0.0569,0.0602,
江戸川 (Edogawa),2016-01-14,06:01～07:00,0.0636,0.0565,0.0598,
江戸川 (Edogawa),2016-01-14,05:01～06:00,0.0635,0.0561,0.0599,
江戸川 (Edogawa),2016-01-14,04:01～05:00,0.0628,0.0567,0.0597,
江戸川 (Edogawa),2016-01-14,03:01～04:00,0.0634,0.0556,0.0598,
江戸川 (Edogawa),2016-01-14,02:01～03:00,0.0651,0.0568,0.0600,
江戸川 (Edogawa),2016-01-14,01:01～02:00,0.0625,0.0565,0.0596,
江戸川 (Edogawa),2016-01-14,00:01～01:00,0.0621,0.0550,0.0595,
江戸川 (Edogawa),2016-01-13,23:01～24:00,0.0625,0.0561,0.0595,
江戸川 (Edogawa),2016-01-13,22:01～23:00,0.0632,0.0550,0.0594,
江戸川 (Edogawa),2016-01-13,21:01～22:00,0.0628,0.0562,0.0593,
江戸川 (Edogawa),2016-01-13,20:01～21:00,0.0627,0.0564,0.0593,
江戸川 (Edogawa),2016-01-13,19:01～20:00,0.0626,0.0569,0.0597,
江戸川 (Edogawa),2016-01-13,18:01～19:00,0.0638,0.0571,0.0598,
江戸川 (Edogawa),2016-01-13,17:01～18:00,0.0634,0.0558,0.0597,
江戸川 (Edogawa),2016-01-13,16:01～17:00,0.0648,0.0556,0.0594,
江戸川 (Edogawa),2016-01-13,15:01～16:00,0.0636,0.0562,0.0600,
江戸川 (Edogawa),2016-01-13,14:01～15:00,0.0630,0.0572,0.0598,
江戸川 (Edogawa),2016-01-13,13:01～14:00,0.0639,0.0571,0.0602,
江戸川 (Edogawa),2016-01-13,12:01～13:00,0.0644,0.0569,0.0606,
江戸川 (Edogawa),2016-01-13,11:01～12:00,0.0641,0.0549,0.0597,
江戸川 (Edogawa),2016-01-13,10:01～11:00,0.0638,0.0566,0.0597,
江戸川 (Edogawa),2016-01-13,09:01～10:00,0.0619,0.0548,0.0595,
江戸川 (Edogawa),2016-01-13,08:01～09:00,0.0638,0.0559,0.0598,
江戸川 (Edogawa),2016-01-13,07:01～08:00,0.0631,0.0564,0.0598,
江戸川 (Edogawa),2016-01-13,06:01～07:00,0.0634,0.0570,0.0596,
江戸川 (Edogawa),2016-01-13,05:01～06:00,0.0636,0.0566,0.0597,
江戸川 (Edogawa),2016-01-13,04:01～05:00,0.0629,0.0568,0.0593,
江戸川 (Edogawa),2016-01-13,03:01～04:00,0.0625,0.0557,0.0594,
江戸川 (Edogawa),2016-01-13,02:01～03:00,0.0639,0.0554,0.0593,
江戸川 (Edogawa),2016-01-13,01:01～02:00,0.0624,0.0554,0.0591,
江戸川 (Edogawa),2016-01-13,00:01～01:00,0.0615,0.0560,0.0589,
江戸川 (Edogawa),2016-01-12,23:01～24:00,0.0633,0.0558,0.0594,
江戸川 (Edogawa),2016-01-12,22:01～23:00,0.0653,0.0551,0.0598,
江戸川 (Edogawa),2016-01-12,21:01～22:00,0.0631,0.0562,0.0592,
江戸川 (Edogawa),2016-01-12,20:01～21:00,0.0631,0.0556,0.0597,
江戸川 (Edogawa),2016-01-12,19:01～20:00,0.0636,0.0560,0.0596,
江戸川 (Edogawa),2016-01-12,18:01～19:00,0.0628,0.0553,0.0594,
江戸川 (Edogawa),2016-01-12,17:01～18:00,0.0638,0.0564,0.0599,
江戸川 (Edogawa),2016-01-12,16:01～17:00,0.0645,0.0573,0.0601,
江戸川 (Edogawa),2016-01-12,15:01～16:00,0.0639,0.0570,0.0598,
江戸川 (Edogawa),2016-01-12,14:01～15:00,0.0626,0.0559,0.0595,
江戸川 (Edogawa),2016-01-12,13:01～14:00,0.0643,0.0575,0.0604,
江戸川 (Edogawa),2016-01-12,12:01～13:00,0.0651,0.0572,0.0607,
江戸川 (Edogawa),2016-01-12,11:01～12:00,0.0632,0.0560,0.0604,
江戸川 (Edogawa),2016-01-12,10:01～11:00,0.0652,0.0561,0.0606,
江戸川 (Edogawa),2016-01-12,09:01～10:00,0.0646,0.0561,0.0605,
江戸川 (Edogawa),2016-01-12,08:01～09:00,0.0649,0.0582,0.0610,
江戸川 (Edogawa),2016-01-12,07:01～08:00,0.0677,0.0570,0.0615,
江戸川 (Edogawa),2016-01-12,06:01～07:00,0.0641,0.0585,0.0611,
江戸川 (Edogawa),2016-01-12,05:01～06:00,0.0660,0.0590,0.0622,
江戸川 (Edogawa),2016-01-12,04:01～05:00,0.0624,0.0572,0.0599,
江戸川 (Edogawa),2016-01-12,03:01～04:00,0.0638,0.0560,0.0599,
江戸川 (Edogawa),2016-01-12,02:01～03:00,0.0631,0.0550,0.0597,
江戸川 (Edogawa),2016-01-12,01:01～02:00,0.0633,0.0559,0.0596,
江戸川 (Edogawa),2016-01-12,00:01～01:00,0.0631,0.0570,0.0600,
江戸川 (Edogawa),2016-01-11,23:01～24:00,0.0632,0.0559,0.0600,
江戸川 (Edogawa),2016-01-11,22:01～23:00,0.0644,0.0571,0.0598,
江戸川 (Edogawa),2016-01-11,21:01～22:00,0.0653,0.0571,0.0598,
江戸川 (Edogawa),2016-01-11,20:01～21:00,0.0648,0.0544,0.0593,
江戸川 (Edogawa),2016-01-11,19:01～20:00,0.0631,0.0573,0.0601,
江戸川 (Edogawa),2016-01-11,18:01～19:00,0.0625,0.0557,0.0596,
江戸川 (Edogawa),2016-01-11,17:01～18:00,0.0640,0.0563,0.0600,
江戸川 (Edogawa),2016-01-11,16:01～17:00,0.0632,0.0573,0.0602,
江戸川 (Edogawa),2016-01-11,15:01～16:00,0.0647,0.0571,0.0602,
江戸川 (Edogawa),2016-01-11,14:01～15:00,0.0635,0.0579,0.0603,
江戸川 (Edogawa),2016-01-11,13:01～14:00,0.0632,0.0572,0.0605,
江戸川 (Edogawa),2016-01-11,12:01～13:00,0.0638,0.0564,0.0604,
江戸川 (Edogawa),2016-01-11,11:01～12:00,0.0633,0.0556,0.0601,
江戸川 (Edogawa),2016-01-11,10:01～11:00,0.0637,0.0576,0.0602,
江戸川 (Edogawa),2016-01-11,09:01～10:00,0.0629,0.0560,0.0595,
江戸川 (Edogawa),2016-01-11,08:01～09:00,0.0636,0.0555,0.0595,
江戸川 (Edogawa),2016-01-11,07:01～08:00,0.0626,0.0544,0.0592,
江戸川 (Edogawa),2016-01-11,06:01～07:00,0.0632,0.0564,0.0593,
江戸川 (Edogawa),2016-01-11,05:01～06:00,0.0613,0.0559,0.0593,
江戸川 (Edogawa),2016-01-11,04:01～05:00,0.0623,0.0562,0.0590,
江戸川 (Edogawa),2016-01-11,03:01～04:00,0.0627,0.0530,0.0593,
江戸川 (Edogawa),2016-01-11,02:01～03:00,0.0630,0.0558,0.0593,
江戸川 (Edogawa),2016-01-11,01:01～02:00,0.0611,0.0564,0.0587,
江戸川 (Edogawa),2016-01-11,00:01～01:00,0.0615,0.0562,0.0589,
